Wind_Speed
22 23 24 23 21 21 20 19 17 16 14 12 10 8 7 7 6 6 5 5 5 4 3 2 3 4 5 6 7 7 8 7
20 20 20 20 20 20 19 18 16 13 13 12 10 9 7 6 5 5 6 6 5 4 4 3 4 4 5 7 7 8 5 7
20 20 20 18 17 18 19 17 16 14 12 11 9 8 6 7 8 8 5 6 6 6 5 5 6 6 4 6 9 7 7 9
21 22 21 20 18 17 16 14 13 12 11 11 10 9 7 5 7 8 7 6 6 6 6 6 5 10 10 4 4 6 9 10
22 23 22 22 20 18 18 19 16 15 13 13 10 8 8 8 9 7 7 4 7 8 7 7 8 5 4 6 9 9 12 12
22 23 21 23 17 17 15 14 15 15 14 13 10 10 9 10 8 5 5 7 4 6 5 5 5 7 8 8 9 11 10 13
24 24 23 23 16 17 17 16 16 14 12 13 13 11 9 9 7 6 6 5 5 4 5 4 6 8 9 12 13 14 15 16
24 23 22 23 20 18 17 16 14 15 14 14 14 9 8 8 6 6 5 5 4 4 6 7 7 8 11 13 14 15 16 17
24 24 22 22 20 18 16 15 15 15 13 11 13 9 7 6 5 4 3 3 3 5 6 6 7 8 10 11 12 13 16 16
23 24 24 23 21 19 17 17 15 14 13 11 9 8 7 6 4 4 3 2 1 3 4 8 9 9 11 12 14 16 16 16
25 25 25 24 22 20 17 15 13 12 11 8 8 8 8 6 5 4 2 1 1 4 5 7 9 11 12 14 16 16 17 18
25 25 25 25 23 19 19 17 15 12 12 11 10 9 9 7 5 3 1 1 1 3 5 7 8 10 13 16 15 17 17 13
27 27 27 26 27 23 23 20 17 15 13 13 12 10 8 7 5 4 3 2 1 1 4 6 7 8 13 15 17 17 11 15
29 28 29 27 27 24 21 21 19 17 15 15 13 11 10 8 7 5 3 3 1 2 4 6 6 8 10 16 6 12 11 21
32 30 33 28 28 24 22 20 19 18 17 15 13 10 9 8 8 6 4 2 2 2 4 6 9 9 7 7 5 4 15 16
29 28 34 31 31 28 28 25 22 21 20 17 14 12 10 8 7 5 4 3 1 2 4 5 6 10 10 9 10 13 9 10
31 30 34 31 33 31 29 23 21 21 19 18 15 13 10 8 6 5 3 1 1 3 4 6 8 9 10 12 14 14 15 15
29 31 33 31 34 30 30 26 23 22 20 19 16 14 11 8 6 5 3 1 3 5 6 8 10 11 12 13 15 16 16 17
26 31 30 30 29 28 28 25 24 23 22 19 18 15 13 10 7 5 4 3 5 7 8 10 11 13 13 15 16 18 19 20
27 26 30 29 29 30 26 25 24 22 20 18 16 13 11 9 6 4 3 4 5 6 8 11 12 12 13 15 17 18 19 20
Wind_Direction
169 172 178 180 183 181 180 178 177 173 168 164 161 160 160 164 173 175 175 180 195 212 216 236 260 276 291 297 303 309 305 301
173 175 178 180 186 187 185 182 180 177 173 170 169 169 171 174 182 188 189 191 198 214 238 254 260 274 298 304 302 296 287 301
176 180 181 184 185 190 188 187 184 182 181 182 178 178 177 211 195 209 218 209 213 219 233 257 278 261 276 321 304 277 292 295
180 183 184 185 191 190 187 190 190 187 191 198 195 204 199 184 188 225 221 222 230 238 251 266 262 260 227 292 271 307 303 296
184 185 186 189 197 184 194 193 198 200 203 192 209 205 216 211 209 210 209 221 231 229 241 251 248 289 315 302 298 296 301 299
184 188 186 188 187 182 189 195 199 197 207 204 201 210 211 231 224 185 205 220 221 234 236 243 271 276 286 286 280 283 281 290
186 187 186 185 185 192 198 199 203 206 204 203 211 215 204 194 195 206 200 216 223 253 283 277 280 282 278 281 286 284 284 284
186 188 186 184 188 191 195 197 199 201 207 206 213 208 200 209 206 220 233 252 283 275 283 283 286 283 285 289 290 292 292 294
185 186 185 187 189 186 188 196 195 201 203 193 207 210 200 215 202 192 199 251 265 279 286 288 301 295 287 283 290 291 294 295
185 186 187 188 189 190 190 189 194 196 197 200 203 187 181 170 164 154 173 163 263 311 319 318 311 308 305 304 307 302 300 301
187 187 186 185 188 185 185 176 185 178 171 164 158 169 169 166 154 141 137 104 337 328 320 318 316 311 310 310 306 302 303 303
190 188 187 182 174 175 172 167 161 158 159 159 149 146 145 146 139 131 123 231 323 348 327 313 310 312 316 311 305 301 297 297
192 188 185 175 167 161 160 167 166 164 161 154 155 152 149 148 148 142 156 134 91 343 311 320 318 336 319 322 312 294 311 303
194 191 176 174 171 175 175 168 167 165 163 160 160 159 155 152 155 156 144 147 118 9 358 345 330 344 333 319 332 306 351 338
196 189 174 172 172 169 168 161 162 164 166 162 161 158 149 154 151 139 124 116 102 31 359 354 333 328 335 313 327 330 322 317
194 186 177 184 179 174 168 171 173 176 171 164 158 156 154 149 136 122 113 117 97 356 351 338 321 317 322 319 309 301 310 310
194 192 182 185 179 174 175 180 181 172 168 161 158 157 157 155 147 140 139 149 338 318 312 315 313 311 312 309 308 302 301 303
189 193 184 181 178 182 181 179 170 169 166 165 162 163 163 160 157 169 188 239 284 296 301 304 301 299 296 297 301 307 304 303
187 194 176 181 182 181 180 176 170 170 167 168 166 168 169 167 175 191 221 259 283 291 299 298 292 291 296 299 299 295 299 297
185 191 178 178 177 171 170 163 167 169 173 166 169 166 166 161 184 210 245 273 283 297 300 293 294 294 294 295 295 294 295 297
Height
800 802 806 809 812 814 816 819 821 823 825 826 828 830 831 832 833 833 834 835 835 835 835 834 834 834 833 833 832 832 830 829
801 804 807 809 812 815 817 819 822 825 826 826 827 829 830 831 833 833 833 834 834 834 834 834 833 833 832 832 831 830 829 829
800 804 807 811 813 816 818 820 821 823 826 827 828 829 830 831 831 832 833 833 833 833 833 832 832 831 831 831 830 829 829 828
797 801 805 809 812 814 818 821 822 824 825 826 827 827 828 829 829 831 831 831 832 832 832 831 830 829 828 829 828 829 829 827
795 798 802 806 808 811 816 817 820 822 823 824 825 826 828 829 828 828 829 829 830 829 830 829 829 829 830 830 829 829 827 825
793 796 799 803 805 809 813 816 817 819 820 822 823 826 825 825 825 826 827 828 829 830 829 829 830 830 829 829 828 827 826 824
789 793 797 800 803 807 810 812 815 817 818 820 822 822 823 824 825 826 827 827 827 828 828 829 829 828 828 827 826 825 824 822
785 790 794 797 800 803 807 810 812 815 815 817 820 820 822 823 824 824 825 826 826 828 828 828 828 827 826 826 825 823 822 820
780 786 789 794 798 801 804 807 808 811 813 815 817 819 820 822 823 823 824 826 826 827 826 826 826 825 823 822 821 820 818 817
777 782 786 791 794 798 800 802 806 809 811 814 815 817 819 820 822 824 824 825 825 825 826 825 823 822 821 820 819 817 815 815
771 777 781 786 791 794 798 801 805 808 810 813 814 817 818 820 822 823 823 824 825 825 825 825 824 822 821 819 818 815 814 812
767 773 778 783 787 792 795 799 803 807 809 812 815 817 818 820 821 822 823 824 824 824 825 825 824 821 820 818 816 813 811 810
762 767 773 778 783 788 792 796 801 805 808 811 814 816 817 819 820 821 822 822 823 824 824 823 822 821 820 817 814 810 809 808
757 762 768 774 778 785 789 793 798 802 806 809 812 814 815 816 818 820 821 822 824 825 825 823 822 821 821 819 813 809 806 808
750 757 764 771 775 781 787 791 795 800 804 807 810 813 815 817 818 819 820 822 823 824 824 823 821 821 820 820 814 812 811 809
748 753 759 767 772 776 780 785 790 795 800 804 808 812 815 817 818 819 821 822 823 823 823 823 822 821 819 818 817 817 813 807
744 750 755 761 766 771 777 782 788 793 798 803 806 810 813 816 817 819 821 822 822 822 823 822 821 820 818 818 816 814 811 809
737 745 749 755 762 767 772 777 782 789 795 799 803 808 811 814 816 818 820 820 821 821 820 820 820 820 819 817 815 812 811 809
734 741 744 752 758 765 770 774 780 786 791 795 799 804 807 811 814 816 817 818 819 819 818 818 819 818 817 816 814 812 811 808
731 739 742 750 757 762 767 773 779 783 788 792 797 801 806 809 813 815 816 817 817 816 817 817 817 816 815 814 812 811 809 806